{"data":{"norad_id":65333,"intl_designator":"2025-189L","name":"STARLINK-34602","alt_names":[],"object_type":"PAYLOAD","status":"ACTIVE","operator":null,"country":"US","launch_date":"2025-08-27","launch_site_code":"AFETR","launch_vehicle":null,"mission":null,"orbit_class":"UNKNOWN","rcs_meters":null,"size_class":null,"mass_kg":null,"dimensions":null,"purposes":["comms"],"wikipedia_slug":null,"has_3d_model":false,"image_url":null,"decayed_at":null,"tle_current":{"epoch":"2026-09-20T14:58:53.993856Z","epoch_age_seconds":106866,"freshness":"FRESH","line1":"1 65333U 25189L   26263.62423604  .00007544  00000+0  25454-3 0  9993","line2":"2 65333  53.1549  19.7607 0001402  87.4679 272.6483 15.31710645 60974","mean_motion":15.31710645,"eccentricity":0.0001402,"inclination_deg":53.1549,"raan_deg":19.7607,"arg_perigee_deg":87.4679,"mean_anomaly_deg":272.6483,"bstar":0.00025454,"rev_number":6097,"period_min":94.012534593308,"perigee_km":469.74805511244,"apogee_km":471.66847132425,"semimajor_km":6848.8452632183,"source":"CELESTRAK","updated_at":"2026-09-21T09:00:35.570787Z"}}}